Weather in Karyakino

Russia / Republic of Bashkortostan     56°09′23″N   54°17′48″E
temp.,
°C
wind,
m/s
gust,
m/s
humid.,
%
clouds,
%
prec.,
mm/h
press.,
hPa
HPBL,
m
6 august, fri
fri623:00+16nnw27938 1.6 1013149
02:00+15nnw24963 0.0 101380
05:00+14n229721 0.1 101444
08:00+16nnw249030 0.0 1015206
11:00+20n46555 0.0 10161007
14:00+23n46340 0.0 10151714
17:00+23n46340 0.0 10151747
20:00+19n25570 0.0 1016114
7 august, sat
sat723:00+14n227298 0.0 101728
02:00+12n1275100 0.0 101711
05:00+11nnw227968 0.0 101816
08:00+15nnw2368100 0.0 1019164
11:00+20nnw354780 0.0 10181095
14:00+22nnw463883 0.0 10181846
17:00+23nnw563764 0.0 10181853
20:00+19n26561 0.0 1018201
8 august, sun
sun823:00+13nnw22720 0.0 101916
02:00+12nnw22770 0.0 102024
05:00+11nnw23830 0.0 102143
08:00+14n25705 0.0 1022204
11:00+20n35484 0.0 1022989
14:00+23n45365 0.0 10211313
17:00+24n453435 0.0 10211383
20:00+20n235631 0.0 102172
9 august, mon
mon923:00+15n2268100 0.0 102222
02:00+14nne227177 0.0 102219
05:00+12n117512 0.0 102310
08:00+16nne1263100 0.0 1023115
11:00+21nne224499 0.0 1022538
14:00+24n2338100 0.0 1022933
17:00+25nne123987 0.0 1022874
20:00+22e11589 0.0 102117
10 august, tue
tue1023:00+18ese226223 0.0 102031
02:00+17sse226371 0.0 102040
05:00+15se1178100 0.3 101911
08:00+17s25865 0.9 1018151
11:00+24w24510 1.1 1017670
14:00+28nw46420 0.0 10161580
17:00+28n47397 0.0 10162309
20:00+23nne24655 0.0 101697